AJISAI (EGS)

Last updated on Mon Sep 21 2026 00:02:08 GMT+0000 (Coordinated Universal Time)

1 16908U 86061A 26263.60167824 -.00000092 00000+0 36352-4 0 9992 2 16908 50.0080 213.9977 0011358 63.0760 282.7872 12.44517434492261
UTC large
Height (km)
Speed (km/s)
/
Latitude / Longitude
Inclination (degrees)
Orbital Period (minutes)
Azimuth
Elevation
Range (km)
Doppler Factor

Next 0 passes for location: London (51.5072 / 0.1276)

No passes found over London.
AJISAI (EGS)